EN

Hourly Weather Melton Mowbray

Today, 24 July, Saturday

Time Temperature Precipitation Wind Pressure Humidity
00:00 +13°C° 0 mm 3 mps 749 mmHg 90%
01:00 +13°C° 0 mm 4 mps 748 mmHg 90%
02:00 +13°C° 0 mm 4 mps 747 mmHg 90%
03:00 +13°C° 0 mm 5 mps 747 mmHg 90%
04:00 +13°C° 0 mm 5 mps 747 mmHg 88%
05:00 +13°C° 0 mm 5 mps 747 mmHg 86%
06:00 +14°C° 0 mm 5 mps 746 mmHg 84%
07:00 +15°C° 0 mm 5 mps 746 mmHg 79%
08:00 +16°C° 0 mm 6 mps 746 mmHg 74%
09:00 +19°C° 0 mm 6 mps 746 mmHg 69%
10:00 +19°C° 0 mm 6 mps 746 mmHg 68%
11:00 +20°C° 0 mm 6 mps 746 mmHg 67%
12:00 +20°C° 0 mm 6 mps 746 mmHg 66%
13:00 +20°C° 0 mm 6 mps 746 mmHg 67%
14:00 +20°C° 0 mm 6 mps 746 mmHg 69%
15:00 +20°C° 0 mm 6 mps 746 mmHg 70%
16:00 +19°C° 0 mm 5 mps 746 mmHg 72%
17:00 +19°C° 0 mm 5 mps 745 mmHg 74%
18:00 +18°C° 0 mm 4 mps 745 mmHg 76%
19:00 +17°C° 0 mm 4 mps 745 mmHg 80%
20:00 +15°C° 0 mm 4 mps 746 mmHg 85%
21:00 +14°C° 0 mm 3 mps 746 mmHg 89%
22:00 +14°C° 0 mm 3 mps 745 mmHg 91%
23:00 +13°C° 0 mm 3 mps 745 mmHg 92%

Tomorrow, 25 July, Sunday

Time Temperature Precipitation Wind Pressure Humidity
00:00 +13°C° 0 mm 3 mps 745 mmHg 94%
01:00 +13°C° 0.1 mm 3 mps 745 mmHg 95%
02:00 +13°C° 0.1 mm 3 mps 745 mmHg 96%
03:00 +13°C° 0.1 mm 3 mps 745 mmHg 97%
04:00 +13°C° 0 mm 3 mps 745 mmHg 96%
05:00 +13°C° 0 mm 3 mps 745 mmHg 94%
06:00 +13°C° 0 mm 4 mps 745 mmHg 93%
07:00 +14°C° 0 mm 4 mps 745 mmHg 89%
08:00 +15°C° 0 mm 4 mps 745 mmHg 84%
09:00 +17°C° 0 mm 4 mps 745 mmHg 80%
10:00 +19°C° 0 mm 4 mps 745 mmHg 74%
11:00 +20°C° 0 mm 3 mps 745 mmHg 67%
12:00 +22°C° 0 mm 3 mps 745 mmHg 61%
13:00 +22°C° 0 mm 3 mps 745 mmHg 60%
14:00 +22°C° 0 mm 3 mps 744 mmHg 59%
15:00 +24°C° 0 mm 2 mps 744 mmHg 57%
16:00 +23°C° 0 mm 2 mps 744 mmHg 61%
17:00 +21°C° 0 mm 2 mps 744 mmHg 66%
18:00 +20°C° 0 mm 2 mps 744 mmHg 70%
19:00 +19°C° 0 mm 2 mps 745 mmHg 74%
20:00 +18°C° 0 mm 2 mps 745 mmHg 79%
21:00 +17°C° 0 mm 2 mps 745 mmHg 84%
22:00 +18°C° 0 mm 1 mps 745 mmHg 86%
23:00 +16°C° 0 mm 1 mps 745 mmHg 88%

Day after tomorrow, 26 July, Monday

Time Temperature Precipitation Wind Pressure Humidity
00:00 +15°C° 0 mm 1 mps 745 mmHg 91%
01:00 +15°C° 0 mm 1 mps 745 mmHg 91%
02:00 +15°C° 0 mm 1 mps 745 mmHg 91%
03:00 +15°C° 0 mm 1 mps 745 mmHg 92%
04:00 +15°C° 0 mm 1 mps 745 mmHg 90%
05:00 +16°C° 0 mm 1 mps 745 mmHg 88%
06:00 +16°C° 0 mm 1 mps 745 mmHg 86%
07:00 +19°C° 0 mm 1 mps 745 mmHg 79%
08:00 +19°C° 0 mm 2 mps 745 mmHg 72%
09:00 +21°C° 0 mm 2 mps 746 mmHg 65%
10:00 +23°C° 0 mm 2 mps 745 mmHg 60%
11:00 +24°C° 0 mm 2 mps 745 mmHg 55%
12:00 +25°C° 0 mm 3 mps 745 mmHg 51%
13:00 +25°C° 0 mm 2 mps 745 mmHg 49%
14:00 +25°C° 0 mm 2 mps 745 mmHg 48%
15:00 +26°C° 0 mm 2 mps 744 mmHg 47%
16:00 +25°C° 0 mm 2 mps 744 mmHg 51%
17:00 +24°C° 0 mm 2 mps 744 mmHg 56%
18:00 +23°C° 0 mm 2 mps 744 mmHg 61%
19:00 +21°C° 0 mm 2 mps 744 mmHg 64%
20:00 +20°C° 0 mm 2 mps 744 mmHg 67%
21:00 +19°C° 0 mm 2 mps 745 mmHg 71%
22:00 +18°C° 0.2 mm 2 mps 745 mmHg 74%
23:00 +17°C° 0.2 mm 2 mps 745 mmHg 78%

27 July, Tuesday

Time Temperature Precipitation Wind Pressure Humidity
00:00 +16°C° 0.2 mm 2 mps 745 mmHg 82%
01:00 +16°C° 0 mm 2 mps 745 mmHg 82%
02:00 +15°C° 0 mm 2 mps 745 mmHg 82%
03:00 +15°C° 0 mm 2 mps 744 mmHg 81%
04:00 +15°C° 0 mm 2 mps 745 mmHg 81%
05:00 +16°C° 0 mm 2 mps 745 mmHg 81%
06:00 +16°C° 0 mm 1 mps 745 mmHg 81%
07:00 +19°C° 0 mm 1 mps 745 mmHg 74%
08:00 +20°C° 0 mm 1 mps 745 mmHg 68%
09:00 +22°C° 0 mm 1 mps 745 mmHg 62%
10:00 +23°C° 0.3 mm 1 mps 745 mmHg 58%
11:00 +24°C° 0.3 mm 1 mps 745 mmHg 54%
12:00 +25°C° 0.3 mm 1 mps 745 mmHg 50%
13:00 +24°C° 0.2 mm 2 mps 744 mmHg 53%
14:00 +24°C° 0.2 mm 2 mps 744 mmHg 57%
15:00 +22°C° 0.2 mm 3 mps 744 mmHg 61%
16:00 +21°C° 0.2 mm 2 mps 744 mmHg 64%
17:00 +21°C° 0.2 mm 2 mps 744 mmHg 68%
18:00 +20°C° 0.2 mm 2 mps 744 mmHg 72%
19:00 +19°C° 0.4 mm 2 mps 743 mmHg 75%
20:00 +19°C° 0.4 mm 2 mps 743 mmHg 79%
21:00 +19°C° 0.4 mm 1 mps 743 mmHg 82%
22:00 +17°C° 0.6 mm 2 mps 743 mmHg 86%
23:00 +17°C° 0.6 mm 2 mps 743 mmHg 90%

28 July, Wednesday

Time Temperature Precipitation Wind Pressure Humidity
00:00 +16°C° 0.6 mm 2 mps 742 mmHg 94%
01:00 +16°C° 0.7 mm 2 mps 742 mmHg 95%
02:00 +14°C° 0.7 mm 3 mps 742 mmHg 95%
03:00 +14°C° 0.7 mm 4 mps 742 mmHg 96%
04:00 +14°C° 0.2 mm 4 mps 742 mmHg 94%
05:00 +14°C° 0.2 mm 4 mps 742 mmHg 93%
06:00 +14°C° 0.2 mm 4 mps 742 mmHg 91%
07:00 +15°C° 0 mm 5 mps 742 mmHg 83%
08:00 +16°C° 0 mm 6 mps 742 mmHg 75%
09:00 +17°C° 0 mm 7 mps 742 mmHg 67%
10:00 +17°C° 0.2 mm 7 mps 742 mmHg 67%
11:00 +18°C° 0.2 mm 7 mps 742 mmHg 66%
12:00 +18°C° 0.2 mm 7 mps 742 mmHg 65%
13:00 +18°C° 0.4 mm 7 mps 742 mmHg 63%
14:00 +20°C° 0.4 mm 8 mps 741 mmHg 61%
15:00 +20°C° 0.4 mm 8 mps 741 mmHg 59%
16:00 +18°C° 0.8 mm 8 mps 741 mmHg 65%
17:00 +17°C° 0.8 mm 7 mps 741 mmHg 70%
18:00 +15°C° 0.8 mm 7 mps 741 mmHg 76%
19:00 +14°C° 0.2 mm 7 mps 741 mmHg 79%
20:00 +13°C° 0.2 mm 6 mps 741 mmHg 82%
21:00 +11°C° 0.2 mm 6 mps 742 mmHg 85%
22:00 +11°C° 0 mm 6 mps 742 mmHg 85%
23:00 +10°C° 0 mm 6 mps 742 mmHg 86%

29 July, Thursday

Time Temperature Precipitation Wind Pressure Humidity
00:00 +10°C° 0 mm 6 mps 741 mmHg 86%
01:00 +10°C° 0 mm 6 mps 741 mmHg 87%
02:00 +10°C° 0 mm 6 mps 741 mmHg 88%
03:00 +10°C° 0 mm 5 mps 741 mmHg 89%
04:00 +10°C° 0.1 mm 6 mps 740 mmHg 89%
05:00 +11°C° 0.1 mm 6 mps 740 mmHg 90%
06:00 +11°C° 0.1 mm 6 mps 740 mmHg 90%
07:00 +12°C° 0.2 mm 7 mps 740 mmHg 84%
08:00 +12°C° 0.2 mm 7 mps 740 mmHg 79%
09:00 +14°C° 0.2 mm 7 mps 740 mmHg 73%
10:00 +15°C° 0.1 mm 7 mps 740 mmHg 66%
11:00 +17°C° 0.1 mm 7 mps 739 mmHg 60%
12:00 +18°C° 0.1 mm 7 mps 739 mmHg 53%
13:00 +17°C° 0.3 mm 6 mps 739 mmHg 57%
14:00 +17°C° 0.3 mm 5 mps 739 mmHg 62%
15:00 +17°C° 0.3 mm 4 mps 740 mmHg 66%
16:00 +17°C° 0 mm 4 mps 740 mmHg 65%
17:00 +18°C° 0 mm 4 mps 740 mmHg 63%
18:00 +18°C° 0 mm 4 mps 740 mmHg 62%
19:00 +17°C° 0 mm 4 mps 740 mmHg 65%
20:00 +15°C° 0 mm 4 mps 741 mmHg 68%
21:00 +14°C° 0 mm 4 mps 741 mmHg 72%
22:00 +14°C° 0 mm 5 mps 742 mmHg 75%
23:00 +14°C° 0 mm 6 mps 742 mmHg 78%
Show more